Regional Weather Roundup
Issued by NWS Sterling, VA

Home | Current Version | Previous Version | Graphics & Text | Print | Product List | Glossary On
Versions: 1 2 3 4 5 6 7 8 9 10 11 12 13 14 15 16 17 18 19 20 21 22 23 24 25 26 27 28 29 30 31 32 33 34 35 36 37 38 39 40 41 42 43 44 45 46 47 48 49 50
000
ASUS41 KLWX 022310
RWRLWX

REGIONAL WEATHER ROUNDUP
NATIONAL WEATHER SERVICE BALTIMORE MD/WASHINGTON DC
700 PM EDT THU JUL 02 2015

Note: "FAIR" indicates few or no clouds below 12,000 feet
with no significant weather and/or obstructions to visibility.
 TC=TEMPERATURE CELSIUS

 * =Non NWS site. Station does not report precipitation (e.g. rain,
    snow, etc.), thunder, or fog.

DCZ001-MDZ009-015-VAZ040>042-051-053>054-030000-
WASHINGTON METRO

CITY           SKY/WX    TMP DP  RH WIND       PRES   REMARKS
WASHINGTON NAT CLOUDY    76  66  71 N3        29.88F
DULLES         CLOUDY    72  62  71 NE5       29.89S
ANDREWS AFB    CLOUDY    71  67  86 VRB3      29.88S
FT BELVOIR     CLOUDY    72  67  84 CALM      29.88S
QUANTICO       CLOUDY    75  63  66 CALM      29.89
COLLEGE PARK*  CLOUDY    72  70  94 CALM      29.88S
LEESBURG*      CLOUDY    72  68  88 CALM      29.90S
MANASSAS*      SUNNY     73  64  73 NE3       29.89S
GAITHERSBURG*  CLOUDY    72  64  78 CALM      29.93S

$$

MDZ006>007-011-014-030000-
BALTIMORE METRO

CITY           SKY/WX    TMP DP  RH WIND       PRES   REMARKS
BWI AIRPORT    CLOUDY    72  64  76 CALM      29.88S
MD SCIENCE CTR   N/A     73  62  68 MISG      29.88S
MARTIN STATE   CLOUDY    73  70  88 CALM      29.89S
ANNAPOLIS      CLOUDY    73  63  70 CALM      29.87F
FORT MEADE*    CLOUDY    70  66  88 CALM      29.90F

$$

MDZ012-015-019>023-030000-
MARYLAND EASTERN SHORE

CITY           SKY/WX    TMP DP  RH WIND       PRES   REMARKS
OCEAN CITY     NOT AVBL
SALISBURY      CLOUDY    72  67  84 N6        29.86S
BAY BRIDGE AP*   N/A     72  64  78 CALM      29.88S
CAMBRIDGE*     CLOUDY    72  64  78 CALM      29.87S

$$

MDZ017>025-030000-
SOUTHERN MARYLAND

CITY           SKY/WX    TMP DP  RH WIND       PRES   REMARKS
PATUXENT RIVER CLOUDY    73  63  70 N6        29.88S
ST INIGOES     CLOUDY    73  65  75 CALM      29.87S
LEONARDTOWN*   CLOUDY    70  63  78 CALM      29.90S

$$

MDZ003>005-030000-
NORTH CENTRAL MARYLAND

CITY           SKY/WX    TMP DP  RH WIND       PRES   REMARKS
FREDERICK*     MOSUNNY   73  70  88 CALM      29.92S
HAGERSTOWN APT CLOUDY    74  61  63 CALM      29.89F
WESTMINSTER*   CLOUDY    72  66  83 CALM      29.90F

$$

MDZ501>502-030000-
WESTERN MARYLAND

CITY           SKY/WX    TMP DP  RH WIND       PRES   REMARKS
OAKLAND*       CLOUDY    64  64 100 CALM      29.99S
CUMBERLAND*    CLOUDY    77  55  47 NW5       29.93S

$$

VAZ025>031-030000-
SHENANDOAH VALLEY

CITY           SKY/WX    TMP DP  RH WIND       PRES   REMARKS
WINCHESTER*    CLOUDY    73  66  78 S3        29.89F
FRONT ROYAL*   FAIR      70  66  88 CALM      29.89S
LURAY*         FAIR      73  64  73 CALM      29.91S
NEW MARKET*    FAIR      73  64  73 CALM      29.89S
STAUNTON*      CLOUDY    74  64  72 CALM      29.94R
WAYNESBORO*    MOCLDY    71  62  75 NW5       29.93S

$$

WVZ021-048>050-054>055-030000-
EASTERN WEST VIRGINIA PANHANDLE

CITY           SKY/WX    TMP DP  RH WIND       PRES   REMARKS
MARTINSBURG    CLOUDY    73  66  78 CALM      29.90S
PETERSBURG*    CLOUDY    76  56  49 NW3       29.92R

$$

VAZ036>039-050-030000-
CENTRAL FOOTHILLS

CITY           SKY/WX    TMP DP  RH WIND       PRES   REMARKS
CHARLOTTESVILL CLOUDY    74  66  76 E5        29.88F
CULPEPER*      CLOUDY    72  66  83 CALM      29.89F
ORANGE*        CLOUDY    73  66  78 CALM      29.91S
GORDONSVILLE*  FAIR      72  64  78 CALM      29.89S
WARRENTON*     FAIR      73  67  83 CALM      29.88S

$$

VAZ055>057-030000-
NORTH AND CENTRAL PIEDMONT

CITY           SKY/WX    TMP DP  RH WIND       PRES   REMARKS
FREDERICKSBRG* CLOUDY    76  65  70 N3        29.87F
STAFFORD*      CLOUDY    72  64  76 CALM      29.92F

$$

NCZ024-NYZ072-PAZ021-071-VAZ022-071-030000-
OTHER REGIONAL OBSERVATIONS

CITY           SKY/WX    TMP DP  RH WIND       PRES   REMARKS
NEW YORK CITY  CLOUDY    74  60  61 S5        29.89S
PHILADELPHIA   LGT RAIN  74  64  71 S3        29.88R
PITTSBURGH     MOSUNNY   76  56  49 NW8       29.91F
ROANOKE        CLOUDY    75  63  66 NE6       29.94S
RICHMOND       CLOUDY    75  67  76 N7        29.88S
RALEIGH        RAIN      74  70  87 N10G16    29.89R FOG

$$

ANZ530>537-030000-
MARINE OBSERVATIONS

STATION/POSITION TIME  TEMP    WIND        PRES
                       AIR SEA DIR/SP/G
                 (UTC) (F)     (DEG/KT/KT) (MB)
THOMAS PT LIGHT  2300   72 76   70/  3/  3 1012.2F
BALT KEY BRIDGE  2200   73     100/  4/  5 1011.6F
COVE POINT       2200   72      20/  9/ 13 1012.6R
LEWISETTA        2200   74 81   20/  7/ 12 1011.2S
SOLOMONS ISLAND  2200      79                N/A
PINEY POINT      2200           20/  8/  9   N/A

$$




USA.gov is the U.S. government's official web portal to all federal, state and local government web resources and services.